"Pseudo-MPEC" for CCXE5Q2

Created 2025 Feb 5 8:31:10 UT using Find_Orb

Click here for an explanation of pseudo-MPECs

 
 Astrometry: 
     CCXE5Q2*1C2025 02 04.29708009 57 35.640+08 15 10.01   ~249H 19.19GVNEOCPG96
     CCXE5Q2 1C2025 02 04.30277909 57 35.284+08 10 26.98   ~249H       VNEOCPG96
     CCXE5Q2 1C2025 02 04.30846609 57 34.877+08 05 41.46   ~249H       VNEOCPG96
     CCXE5Q2 1C2025 02 04.31416109 57 34.474+08 00 58.21   ~249H       VNEOCPG96
     CCXE5Q2 KC2025 02 04.43645309 57 26.417+06 21 45.25   ~24Al 19.84GVNEOCPI52
     CCXE5Q2 KC2025 02 04.43696609 57 26.392+06 21 20.84   ~24Al 19.47GVNEOCPI52
     CCXE5Q2 KC2025 02 04.43747809 57 26.381+06 20 56.83   ~24Al 19.54GVNEOCPI52
     CCXE5Q2 KB2025 02 04.70326909 58 43.52 +03 00 48.4    ~256l 19.8 GVNEOCPP13
     CCXE5Q2 KB2025 02 04.71364709 58 42.87 +02 53 29.1    ~256l 19.5 GVNEOCPP13
     CCXE5Q2 KB2025 02 04.72264909 58 42.34 +02 47 08.1    ~256l 19.1 GVNEOCPP13
     CCXE5Q2 KC2025 02 04.87411109 59 32.83 +01 03 04.6    ~24LV 19.2 GVNEOCPL01
     CCXE5Q2 KC2025 02 04.87531809 59 32.82 +01 02 16.7    ~24LV 19.2 GVNEOCPL01
     CCXE5Q2 KC2025 02 04.87652609 59 32.85 +01 01 28.8    ~24LV 19.2 GVNEOCPL01
     CCXE5Q2 KC2025 02 04.87773009 59 32.89 +01 00 41.3    ~24LV 19.3 GVNEOCPL01
     CCXE5Q2 KC2025 02 04.87893409 59 32.85 +00 59 54.0    ~24LV 19.1 GVNEOCPL01
     CCXE5Q2 KB2025 02 04.89843709 59 38.96 +00 47 13.2    ~24Ml 20.0 GVNEOCPI93
     CCXE5Q2 KB2025 02 04.90530509 59 39.16 +00 42 44.2    ~24Ml 19.7 GVNEOCPI93
     CCXE5Q2 1C2025 02 04.91209309 59 31.330+00 37 42.70   ~24MH 19.4 GWNEOCP246
     CCXE5Q2 KB2025 02 04.91217009 59 39.27 +00 38 16.6    ~24Ml       VNEOCPI93
     CCXE5Q2 1C2025 02 04.91254509 59 31.340+00 37 24.50   ~24MH       WNEOCP246
     CCXE5Q2 1C2025 02 04.91299709 59 31.330+00 37 06.90   ~24MH       WNEOCP246
     CCXE5Q2 1C2025 02 04.91322209 59 31.290+00 36 57.60   ~24MH       WNEOCP246
     CCXE5Q2 KB2025 02 04.91804 09 59 32.29 +00 34 15.4    ~24Ml       ZNEOCP106
     CCXE5Q2 KB2025 02 04.92141 09 59 32.18 +00 32 04.4    ~24Ml 18.3 RZNEOCP106
     CCXE5Q2 KB2025 02 04.92465 09 59 32.09 +00 29 59.0    ~24Ml 18.1 RZNEOCP106
     CCXE5Q2 KB2025 02 04.92792 09 59 31.97 +00 27 52.8    ~24Ml       ZNEOCP106
     CCXE5Q2 KC2025 02 04.93158409 59 37.102+00 24 45.79   ~24N2 19.5 GWNEOCPJ95
     CCXE5Q2 KC2025 02 04.93524409 59 33.97 +00 23 25.1    ~24NV 19.0 GVNEOCP104
     CCXE5Q2 SC2025 02 04.94150509 59 37.222+00 18 23.08   ~24N2 19.1 GWNEOCPJ95
     CCXE5Q2 KC2025 02 04.94756109 59 33.57 +00 15 31.9    ~24NV 19.3 GVNEOCP104
     CCXE5Q2 KB2025 02 04.97927709 59 38.82 -00 04 35.7    ~250H 19.6 GXNEOCP958
     CCXE5Q2 KB2025 02 04.98159109 59 38.69 -00 06 03.4    ~250H 19.3 GXNEOCP958
     CCXE5Q2 KB2025 02 04.98697809 59 38.42 -00 09 28.0    ~250H 19.2 GXNEOCP958

Station data:
(104) San Marcello Pistoiese  (N44.064178 E10.803750)  Italy.  Observers P.
   Bacci, M. Maestripieri. Measurers P. Bacci, L. Tesi, G. Fagioli. 0.60-m
   reflector + CCD.
(106) Črni Vrh  (N45.945905 E14.071100)  Slovenia.  Observer J. Skvarč. 0.6-m
   f/3.3 Deltagraph + CCD.
(246) Klet Observatory-KLENOT  (N48.863991 E14.284760)  Czech Republic.
   Observer J. Ticha. Measurer M. Tichy. 1.06-m f/2.7 reflector + 2048x2048
   CCD.
(958) Observatoire de Dax  (N43.693381 W1.030530)  France.  Observer P.
   Dupouy. 0.32-m Schmidt-Cassegrain.
(G96) Mt. Lemmon Survey  (N32.442729 W110.788720)  US/Arizona.  Observer E.
   J. Christensen.  + 10K CCD.
(I52) Steward Observatory, Mt. Lemmon Station  (N32.442570 W110.788920)
   US/Arizona.  Observers T. A. Pruyne, B. M. Africano, E. J. Christensen, G.
   A. Farneth, D. C. Fuls, A. R. Gibbs, A. D. Grauer, H. Gröller, J. A.
   Johnson, R. A. Kowalski, S. M. Larson, G. J. Leonard, D. Rankin, R. L.
   Seaman, F. C. Shelly, K. W. Wierzchoś. 1.0-m prime focus + CCD.
(I93) St Pardon de Conques  (N44.558670 W0.202960)  France.  Observers F.
   Losse, W. D'Anna. Measurer F. Losse. 0.40-m f/3.7 reflector + CCD.
(J95) Great Shefford  (N51.474969 W1.447003)  UK/England.  Observer P.
   Birtwhistle. 0.41-m f/6.3 Schmidt-Cassegrain + CCD.
(L01) Višnjan Observatory, Tičan  (N45.290897 E13.749300)  Croatia.
   Observers K. Korlević, D. Pujagic, V. Dobos. Measurers D. Pujagic, K.
   Korlević. 1.0-m f/2.9 reflector + CCD.
(P13) Baihuashan Observatory, Beijing  (N39.837554 E115.573330)  China.

Orbital elements:  CCXE5Q2
   Perihelion 2025 Jan 10.58115 +/- 0.00789 TT = 13:56:51 (JD 2460686.08115)
Epoch 2025 Feb  5.0 TT = JDT 2460711.5   Earth MOID: 0.0085      AutoNEOCP
M  16.56506047 +/- 0.007            (J2000 ecliptic)
n   0.65168408 +/- 0.00022          Peri.  152.24959 +/- 0.009
a   1.31758296 +/- 0.000296         Node   315.18679 +/- 0.00007
e   0.2621767 +/- 0.000174          Incl.    7.76862 +/- 0.0040
P   1.512/552.404d         H 28.23  G  0.15   U  7.1
q 0.97214328 +/- 2.19e-5    Q 1.66302264 +/- 0.000602
From 33 observations 2025 Feb. 4 (16.6 hr); mean residual 0".47
Residuals in arcseconds: 
250204 G96  .08+  .13-    250204 L01  .60-  .22+    250204 106  .54+  .70-    
250204 G96  .31+  1.3+    250204 L01  .37-  .05+    250204 106  .01-  .78-    
250204 G96  .01+  .80-    250204 L01  .03+  .10+    250204 106  .19-  .47-    
250204 G96  .02-  .78-    250204 L01  .75-  .33+    250204 106  .73-  .04+    
250204 I52  .06-  .03+    250204 I93  .67-  .77+    250204 J95  .17+  .14+    
250204 I52  .18-  .05+    250204 I93  .10+  .31+    250204 104  .31-  .83-    
250204 I52  .09-  .42+    250204 246  .14+  .22-    250204 J95  .02+  .00     
250204 P13  .12-  .23-    250204 I93  .25+  .43+    250204 104  .30+  .46+    
250204 P13  .14-  .46+    250204 246  .34+  .81-    250204 958  .60+  .48+    
250204 P13  .40+  .30-    250204 246  .25+  .81-    250204 958  .08+  .54+    
250204 L01  .21-  .41+    250204 246  .33-  1.3-    250204 958  .49-  .06-    

Ephemerides (geocentric):
Date (UTC) HH   RA             Dec           delta  r     elong  mag " sig PA
---- --------  ------------   ------------  ------ ------ -----  --- --------
2025 02 05 09  10 00 22.899   -03 47 52.88  .01364 0.9986 157.4 20.0 .542 151
2025 02 05 10  10 00 28.456   -04 10 10.01  .01376 0.9987 157.1 20.0 .563 151
2025 02 05 11  10 00 33.926   -04 32 05.21  .01387 0.9988 156.8 20.0 .583 151
2025 02 05 12  10 00 39.312   -04 53 38.91  .01399 0.9989 156.5 20.1 .604 151
2025 02 05 13  10 00 44.615   -05 14 51.51  .01410 0.9989 156.2 20.1 .624 151
2025 02 05 14  10 00 49.837   -05 35 43.44  .01422 0.9990 155.9 20.1 .645 152
2025 02 05 15  10 00 54.980   -05 56 15.10  .01433 0.9991 155.6 20.1 .666 152
2025 02 05 16  10 01 00.045   -06 16 26.88  .01445 0.9992 155.4 20.2 .687 152
2025 02 05 17  10 01 05.035   -06 36 19.17  .01456 0.9993 155.1 20.2 .708 152
2025 02 05 18  10 01 09.951   -06 55 52.37  .01468 0.9994 154.8 20.2 .729 152
2025 02 05 19  10 01 14.794   -07 15 06.84  .01480 0.9995 154.5 20.2 .750 152
2025 02 05 20  10 01 19.567   -07 34 02.95  .01492 0.9995 154.3 20.3 .770 152
2025 02 05 21  10 01 24.270   -07 52 41.06  .01504 0.9996 154.0 20.3 .791 153
2025 02 05 22  10 01 28.905   -08 11 01.54  .01516 0.9997 153.8 20.3 .812 153
2025 02 05 23  10 01 33.474   -08 29 04.72  .01527 0.9998 153.5 20.3 .833 153
2025 02 06 00  10 01 37.977   -08 46 50.95  .01539 0.9999 153.3 20.4 .853 153
2025 02 06 01  10 01 42.417   -09 04 20.56  .01551 1.0000 153.0 20.4 .874 153
2025 02 06 02  10 01 46.794   -09 21 33.88  .01564 1.0000 152.8 20.4 .894 153
2025 02 06 03  10 01 51.110   -09 38 31.23  .01576 1.0001 152.5 20.4 .915 153
2025 02 06 04  10 01 55.367   -09 55 12.92  .01588 1.0002 152.3 20.5 .935 154
2025 02 06 05  10 01 59.564   -10 11 39.26  .01600 1.0003 152.1 20.5 .955 154
2025 02 06 06  10 02 03.704   -10 27 50.56  .01612 1.0004 151.8 20.5 .975 154
2025 02 06 07  10 02 07.787   -10 43 47.10  .01625 1.0005 151.6 20.5 1.00 154
2025 02 06 08  10 02 11.815   -10 59 29.18  .01637 1.0006 151.4 20.5 1.01 154
2025 02 06 09  10 02 15.789   -11 14 57.07  .01649 1.0006 151.2 20.6 1.03 154
2025 02 06 10  10 02 19.710   -11 30 11.06  .01662 1.0007 150.9 20.6 1.05 154
2025 02 06 11  10 02 23.578   -11 45 11.41  .01674 1.0008 150.7 20.6 1.07 154
2025 02 06 12  10 02 27.395   -11 59 58.39  .01686 1.0009 150.5 20.6 1.09 155
2025 02 06 13  10 02 31.162   -12 14 32.26  .01699 1.0010 150.3 20.7 1.11 155
2025 02 06 14  10 02 34.880   -12 28 53.27  .01711 1.0011 150.1 20.7 1.13 155
2025 02 06 15  10 02 38.549   -12 43 01.66  .01724 1.0012 149.9 20.7 1.15 155
2025 02 06 16  10 02 42.171   -12 56 57.69  .01736 1.0012 149.7 20.7 1.17 155
2025 02 06 17  10 02 45.747   -13 10 41.58  .01749 1.0013 149.5 20.7 1.19 155
2025 02 06 18  10 02 49.276   -13 24 13.57  .01762 1.0014 149.3 20.8 1.21 155
2025 02 06 19  10 02 52.761   -13 37 33.89  .01774 1.0015 149.2 20.8 1.22 155
2025 02 06 20  10 02 56.202   -13 50 42.75  .01787 1.0016 149.0 20.8 1.24 156
2025 02 06 21  10 02 59.599   -14 03 40.38  .01800 1.0017 148.8 20.8 1.26 156
2025 02 06 22  10 03 02.954   -14 16 26.99  .01812 1.0018 148.6 20.8 1.28 156
2025 02 06 23  10 03 06.267   -14 29 02.78  .01825 1.0018 148.4 20.9 1.30 156
2025 02 07 00  10 03 09.539   -14 41 27.95  .01838 1.0019 148.3 20.9 1.31 156
2025 02 07 01  10 03 12.771   -14 53 42.71  .01851 1.0020 148.1 20.9 1.33 156
2025 02 07 02  10 03 15.963   -15 05 47.26  .01863 1.0021 147.9 20.9 1.35 156
2025 02 07 03  10 03 19.117   -15 17 41.77  .01876 1.0022 147.7 20.9 1.36 156
2025 02 07 04  10 03 22.232   -15 29 26.43  .01889 1.0023 147.6 21.0 1.38 156
2025 02 07 05  10 03 25.309   -15 41 01.43  .01902 1.0024 147.4 21.0 1.40 156
2025 02 07 06  10 03 28.350   -15 52 26.95  .01915 1.0025 147.3 21.0 1.41 157
2025 02 07 07  10 03 31.354   -16 03 43.16  .01928 1.0025 147.1 21.0 1.43 157
2025 02 07 08  10 03 34.323   -16 14 50.22  .01941 1.0026 146.9 21.0 1.45 157